Location: ????????
(55.6189°N, 38.3031°E)
Time: 03:30:48
(UTC+00:00)

IDEFIX/ARIANE 42P - Pass Details

Date: 15 November 2019
Orbit: 784 x 804 km, 98.3° (Epoch: 12 December)

Event Time Altitude Azimuth Distance (km) Brightness Sun altitude
Rises 01:37:35 0° 15° (NNE) 3,299 6.1 -28.2°
Reaches altitude 10° 01:39:55 10° 14° (NNE) 2,364 5.3 -27.9°
Enters shadow 01:44:25 66° 358° (N) 862 2.6 -27.3°
